ARG4522 SUMU-SBGL

Flight info

Callsign ARG4522
Flight time 2h 13m
Altitude 35000
Route CRR UM540 ITBEB UN857 AKNUB
Aircraft B738/M-SDE2E3FGHIRWXY/LB1

Departure

Time 2026-04-30 11:40
Airport Carrasco General Cesáreo L. Berisso International Airport (SUMU)

Arrival

Time 2026-04-30 13:53
Airport Rio Galeão – Tom Jobim International Airport (SBGL)
Time Latitude Longitude Altitude Speed Heading
2026-04-30 11:29 -34.84068 -56.02755 69 ft 0 kts 148°
2026-04-30 11:36 -34.84057 -56.02763 68 ft 2 kts 148°
2026-04-30 11:36 -34.84043 -56.02774 72 ft 2 kts 148°
2026-04-30 11:37 -34.84029 -56.02784 66 ft 2 kts 148°
2026-04-30 11:37 -34.84015 -56.02795 64 ft 2 kts 148°
2026-04-30 11:37 -34.84003 -56.02804 62 ft 0 kts 147°
2026-04-30 11:38 -34.84005 -56.02803 72 ft 1 kts 152°
2026-04-30 11:38 -34.84010 -56.02813 65 ft 2 kts 262°
2026-04-30 11:38 -34.84012 -56.02878 72 ft 12 kts 270°
2026-04-30 11:39 -34.84012 -56.02997 70 ft 16 kts 270°
2026-04-30 11:39 -34.84082 -56.03073 65 ft 16 kts 169°
2026-04-30 11:39 -34.84174 -56.03030 67 ft 14 kts 208°
2026-04-30 11:39 -34.84158 -56.03075 68 ft 6 kts 358°
2026-04-30 11:40 -34.83915 -56.03079 67 ft 75 kts 359°
2026-04-30 11:40 -34.83134 -56.03090 65 ft 147 kts 359°
2026-04-30 11:40 -34.81943 -56.03117 382 ft 187 kts 359°
2026-04-30 11:40 -34.80578 -56.03165 1060 ft 206 kts 358°
2026-04-30 11:41 -34.79075 -56.03201 1706 ft 222 kts 359°
2026-04-30 11:41 -34.77506 -56.03106 2365 ft 235 kts 16°
2026-04-30 11:41 -34.76075 -56.02064 2997 ft 248 kts 39°
2026-04-30 11:41 -34.74801 -56.00586 3720 ft 257 kts 43°
2026-04-30 11:42 -34.73542 -55.98995 4456 ft 265 kts 44°
2026-04-30 11:42 -34.72259 -55.97350 5184 ft 272 kts 44°
2026-04-30 11:42 -34.70945 -55.95670 5978 ft 275 kts 44°
2026-04-30 11:42 -34.69618 -55.93981 6767 ft 278 kts 44°
2026-04-30 11:43 -34.68268 -55.92272 7487 ft 283 kts 44°
2026-04-30 11:43 -34.66891 -55.90538 8189 ft 288 kts 44°
2026-04-30 11:43 -34.65486 -55.88773 8921 ft 293 kts 43°
2026-04-30 11:43 -34.64056 -55.86981 9631 ft 298 kts 43°
2026-04-30 11:44 -34.62603 -55.85163 10324 ft 303 kts 43°
2026-04-30 11:44 -34.61122 -55.83313 10962 ft 308 kts 43°
2026-04-30 11:44 -34.59599 -55.81414 11417 ft 323 kts 43°
2026-04-30 11:44 -34.57972 -55.79390 11579 ft 346 kts 43°
2026-04-30 11:45 -34.56240 -55.77236 11756 ft 368 kts 44°
2026-04-30 11:45 -34.54408 -55.74956 11988 ft 386 kts 44°
2026-04-30 11:45 -34.52511 -55.72594 12500 ft 394 kts 44°
2026-04-30 11:45 -34.50587 -55.70199 13132 ft 399 kts 44°
2026-04-30 11:46 -34.48639 -55.67776 13768 ft 404 kts 44°
2026-04-30 11:46 -34.46663 -55.65321 14296 ft 410 kts 44°
2026-04-30 11:46 -34.44662 -55.62838 14833 ft 415 kts 43°
2026-04-30 11:46 -34.42635 -55.60324 15380 ft 419 kts 43°
2026-04-30 11:47 -34.40585 -55.57784 15924 ft 424 kts 43°
2026-04-30 11:47 -34.38512 -55.55217 16443 ft 429 kts 43°
2026-04-30 11:47 -34.36385 -55.52735 16940 ft 432 kts 38°
2026-04-30 11:47 -34.34082 -55.50362 17454 ft 436 kts 36°
2026-04-30 11:48 -34.31730 -55.48006 17978 ft 440 kts 36°
2026-04-30 11:48 -34.29358 -55.45642 18464 ft 445 kts 36°
2026-04-30 11:48 -34.26956 -55.43253 18896 ft 449 kts 35°
2026-04-30 11:48 -34.24536 -55.40844 19342 ft 452 kts 35°
2026-04-30 11:49 -34.22101 -55.38419 19788 ft 456 kts 35°
2026-04-30 11:49 -34.19645 -55.35971 20215 ft 459 kts 35°
2026-04-30 11:49 -34.17171 -55.33501 20651 ft 463 kts 35°
2026-04-30 11:49 -34.14682 -55.31014 21069 ft 467 kts 35°
2026-04-30 11:50 -34.13015 -55.29347 21364 ft 469 kts 35°
2026-04-30 11:50 -34.10498 -55.26827 21781 ft 473 kts 35°
2026-04-30 11:50 -34.07960 -55.24284 22210 ft 476 kts 35°
2026-04-30 11:50 -34.05407 -55.21724 22609 ft 479 kts 35°
2026-04-30 11:51 -34.02835 -55.19142 22996 ft 483 kts 35°
2026-04-30 11:51 -34.00244 -55.16540 23369 ft 486 kts 35°
2026-04-30 11:51 -33.97636 -55.13920 23733 ft 490 kts 35°
2026-04-30 11:51 -33.95016 -55.11287 24057 ft 492 kts 35°
2026-04-30 11:52 -33.92427 -55.08572 24413 ft 496 kts 39°
2026-04-30 11:52 -33.89905 -55.05734 24772 ft 497 kts 37°
2026-04-30 11:52 -33.87323 -55.02966 25110 ft 498 kts 36°
2026-04-30 11:52 -33.84707 -55.00223 25443 ft 500 kts 36°
2026-04-30 11:53 -33.82074 -54.97475 25760 ft 502 kts 36°
2026-04-30 11:53 -33.79437 -54.94712 26088 ft 504 kts 36°
2026-04-30 11:53 -33.76795 -54.91929 26407 ft 506 kts 36°
2026-04-30 11:53 -33.74146 -54.89125 26710 ft 508 kts 36°
2026-04-30 11:54 -33.71495 -54.86310 27005 ft 510 kts 36°
2026-04-30 11:54 -33.68831 -54.83477 27314 ft 512 kts 36°
2026-04-30 11:54 -33.66160 -54.80638 27613 ft 514 kts 36°
2026-04-30 11:54 -33.63480 -54.77791 27896 ft 516 kts 36°
2026-04-30 11:55 -33.60790 -54.74938 28184 ft 517 kts 36°
2026-04-30 11:55 -33.58088 -54.72074 28466 ft 519 kts 36°
2026-04-30 11:55 -33.55378 -54.69207 28738 ft 521 kts 36°
2026-04-30 11:55 -33.52657 -54.66330 29002 ft 523 kts 36°
2026-04-30 11:56 -33.49962 -54.63484 29311 ft 523 kts 36°
2026-04-30 11:56 -33.47237 -54.60607 29714 ft 522 kts 36°
2026-04-30 11:56 -33.44519 -54.57738 30160 ft 519 kts 36°
2026-04-30 11:56 -33.41816 -54.54887 30534 ft 517 kts 35°
2026-04-30 11:57 -33.39118 -54.52046 30868 ft 516 kts 35°
2026-04-30 11:57 -33.36423 -54.49212 31170 ft 516 kts 35°
2026-04-30 11:57 -33.33729 -54.46382 31488 ft 515 kts 35°
2026-04-30 11:57 -33.31044 -54.43564 31821 ft 513 kts 34°
2026-04-30 11:58 -33.28363 -54.40751 32142 ft 512 kts 34°
2026-04-30 11:58 -33.25689 -54.37949 32451 ft 511 kts 34°
2026-04-30 11:58 -33.23016 -54.35150 32769 ft 510 kts 34°
2026-04-30 11:58 -33.20351 -54.32361 33071 ft 509 kts 34°
2026-04-30 11:59 -33.17690 -54.29579 33365 ft 508 kts 34°
2026-04-30 11:59 -33.15031 -54.26801 33655 ft 507 kts 34°
2026-04-30 11:59 -33.12379 -54.24033 33969 ft 506 kts 34°
2026-04-30 11:59 -33.09732 -54.21272 34238 ft 505 kts 34°
2026-04-30 12:00 -33.07089 -54.18519 34469 ft 504 kts 34°
2026-04-30 12:00 -33.04445 -54.15767 34690 ft 504 kts 33°
2026-04-30 12:00 -33.01807 -54.13022 34929 ft 503 kts 33°
2026-04-30 12:00 -32.99174 -54.10286 35121 ft 503 kts 33°
2026-04-30 12:01 -32.93854 -54.04770 35115 ft 509 kts 33°
2026-04-30 12:01 -32.88520 -53.99240 35110 ft 507 kts 34°
2026-04-30 12:02 -32.83211 -53.93742 35108 ft 505 kts 34°
2026-04-30 12:02 -32.77918 -53.88274 35112 ft 503 kts 33°
2026-04-30 12:03 -32.70038 -53.80151 35107 ft 501 kts 33°
2026-04-30 12:04 -32.64771 -53.74733 35117 ft 501 kts 33°
2026-04-30 12:04 -32.59505 -53.69324 35119 ft 501 kts 33°
2026-04-30 12:05 -32.54234 -53.63918 35119 ft 501 kts 34°
2026-04-30 12:05 -32.48952 -53.58508 35116 ft 502 kts 34°
2026-04-30 12:06 -32.43683 -53.53044 35119 ft 505 kts 35°
2026-04-30 12:06 -32.38500 -53.47412 35126 ft 507 kts 36°
2026-04-30 12:07 -32.33317 -53.41745 35124 ft 508 kts 36°
2026-04-30 12:07 -32.28108 -53.36093 35120 ft 508 kts 36°
2026-04-30 12:08 -32.22883 -53.30457 35124 ft 509 kts 36°
2026-04-30 12:08 -32.17650 -53.24827 35128 ft 509 kts 36°
2026-04-30 12:09 -32.12453 -53.19242 35123 ft 509 kts 36°
2026-04-30 12:09 -32.07225 -53.13632 35123 ft 508 kts 36°
2026-04-30 12:10 -32.02003 -53.08036 35117 ft 507 kts 36°
2026-04-30 12:10 -31.96792 -53.02462 35123 ft 505 kts 36°
2026-04-30 12:11 -31.91590 -52.96906 35125 ft 504 kts 36°
2026-04-30 12:11 -31.86388 -52.91361 35120 ft 503 kts 36°
2026-04-30 12:12 -31.81205 -52.85842 35124 ft 502 kts 36°
2026-04-30 12:12 -31.76029 -52.80340 35125 ft 501 kts 36°
2026-04-30 12:13 -31.70854 -52.74849 35125 ft 501 kts 36°
2026-04-30 12:13 -31.65688 -52.69375 35132 ft 500 kts 36°
2026-04-30 12:14 -31.60515 -52.63901 35132 ft 500 kts 36°
2026-04-30 12:14 -31.55342 -52.58436 35122 ft 501 kts 36°
2026-04-30 12:15 -31.50166 -52.52972 35131 ft 501 kts 36°
2026-04-30 12:15 -31.44989 -52.47508 35134 ft 501 kts 36°
2026-04-30 12:16 -31.39807 -52.42046 35129 ft 501 kts 36°
2026-04-30 12:16 -31.34619 -52.36585 35130 ft 501 kts 36°
2026-04-30 12:17 -31.26834 -52.28409 35132 ft 502 kts 36°
2026-04-30 12:17 -31.21644 -52.22968 35131 ft 501 kts 36°
2026-04-30 12:18 -31.16453 -52.17534 35134 ft 501 kts 36°
2026-04-30 12:18 -31.11265 -52.12113 35133 ft 501 kts 36°
2026-04-30 12:19 -31.06109 -52.06733 35134 ft 500 kts 36°
2026-04-30 12:19 -31.00919 -52.01326 35132 ft 500 kts 36°
2026-04-30 12:20 -30.95729 -51.95926 35133 ft 500 kts 36°
2026-04-30 12:20 -30.90533 -51.90529 35138 ft 500 kts 36°
2026-04-30 12:21 -30.85339 -51.85142 35138 ft 500 kts 36°
2026-04-30 12:21 -30.80145 -51.79763 35136 ft 500 kts 36°
2026-04-30 12:22 -30.74942 -51.74383 35139 ft 500 kts 36°
2026-04-30 12:22 -30.69747 -51.69019 35136 ft 500 kts 36°
2026-04-30 12:23 -30.64543 -51.63653 35137 ft 500 kts 36°
2026-04-30 12:23 -30.59338 -51.58293 35134 ft 500 kts 36°
2026-04-30 12:24 -30.54130 -51.52939 35135 ft 500 kts 36°
2026-04-30 12:24 -30.48886 -51.47648 35141 ft 499 kts 34°
2026-04-30 12:25 -30.43613 -51.42415 35140 ft 499 kts 34°
2026-04-30 12:25 -30.38342 -51.37183 35140 ft 499 kts 34°
2026-04-30 12:26 -30.33080 -51.31952 35142 ft 499 kts 34°
2026-04-30 12:26 -30.27817 -51.26721 35142 ft 498 kts 34°
2026-04-30 12:27 -30.22591 -51.21536 35137 ft 498 kts 34°
2026-04-30 12:27 -30.17328 -51.16323 35138 ft 498 kts 34°
2026-04-30 12:28 -30.12065 -51.11117 35136 ft 498 kts 34°
2026-04-30 12:28 -30.06798 -51.05914 35128 ft 498 kts 34°
2026-04-30 12:29 -30.01534 -51.00722 35129 ft 498 kts 34°
2026-04-30 12:29 -29.96270 -50.95536 35134 ft 498 kts 34°
2026-04-30 12:30 -29.91006 -50.90357 35136 ft 497 kts 34°
2026-04-30 12:30 -29.85691 -50.85269 35139 ft 495 kts 32°
2026-04-30 12:31 -29.80202 -50.80505 35149 ft 493 kts 30°
2026-04-30 12:31 -29.74701 -50.75795 35148 ft 493 kts 31°
2026-04-30 12:32 -29.69222 -50.71047 35144 ft 493 kts 31°
2026-04-30 12:32 -29.63749 -50.66282 35148 ft 493 kts 31°
2026-04-30 12:33 -29.58281 -50.61528 35162 ft 493 kts 31°
2026-04-30 12:33 -29.52854 -50.56785 35150 ft 496 kts 34°
2026-04-30 12:34 -29.47929 -50.51161 35171 ft 501 kts 41°
2026-04-30 12:34 -29.43183 -50.45282 35159 ft 502 kts 42°
2026-04-30 12:35 -29.38418 -50.39427 35163 ft 502 kts 41°
2026-04-30 12:35 -29.33625 -50.33617 35160 ft 502 kts 41°
2026-04-30 12:36 -29.28816 -50.27819 35160 ft 501 kts 41°
2026-04-30 12:36 -29.24013 -50.22036 35167 ft 501 kts 41°
2026-04-30 12:37 -29.19210 -50.16258 35163 ft 501 kts 41°
2026-04-30 12:37 -29.14404 -50.10483 35169 ft 501 kts 41°
2026-04-30 12:38 -29.09596 -50.04713 35161 ft 501 kts 41°
2026-04-30 12:38 -29.04784 -49.98949 35157 ft 501 kts 41°
2026-04-30 12:39 -29.00782 -49.94159 35155 ft 501 kts 41°
2026-04-30 12:39 -28.95207 -49.87495 35153 ft 498 kts 41°
2026-04-30 12:40 -28.90412 -49.81775 35151 ft 499 kts 41°
2026-04-30 12:40 -28.86448 -49.76905 35159 ft 500 kts 43°
2026-04-30 12:41 -28.81795 -49.70984 35154 ft 502 kts 43°
2026-04-30 12:41 -28.77132 -49.65057 35151 ft 503 kts 43°
2026-04-30 12:42 -28.72440 -49.59140 35150 ft 503 kts 43°
2026-04-30 12:42 -28.66970 -49.52271 35149 ft 504 kts 43°
2026-04-30 12:43 -28.63048 -49.47352 35155 ft 505 kts 43°
2026-04-30 12:43 -28.58325 -49.41434 35154 ft 505 kts 43°
2026-04-30 12:44 -28.53603 -49.35525 35141 ft 504 kts 42°
2026-04-30 12:44 -28.48885 -49.29629 35152 ft 504 kts 42°
2026-04-30 12:45 -28.44165 -49.23747 35156 ft 504 kts 42°
2026-04-30 12:45 -28.39426 -49.17879 35154 ft 504 kts 42°
2026-04-30 12:46 -28.34691 -49.12021 35153 ft 503 kts 42°
2026-04-30 12:46 -28.29964 -49.06175 35144 ft 502 kts 42°
2026-04-30 12:47 -28.25259 -49.00313 35147 ft 503 kts 43°
2026-04-30 12:47 -28.20608 -48.94394 35155 ft 502 kts 43°
2026-04-30 12:48 -28.15921 -48.88518 35155 ft 503 kts 42°
2026-04-30 12:48 -28.11216 -48.82654 35137 ft 503 kts 42°
2026-04-30 12:49 -28.06518 -48.76797 35140 ft 502 kts 42°
2026-04-30 12:49 -28.01826 -48.70946 35143 ft 502 kts 42°
2026-04-30 12:50 -27.97130 -48.65098 35143 ft 502 kts 42°
2026-04-30 12:50 -27.92431 -48.59253 35129 ft 502 kts 42°
2026-04-30 12:51 -27.87725 -48.53410 35115 ft 503 kts 42°
2026-04-30 12:51 -27.83046 -48.47608 35115 ft 503 kts 42°
2026-04-30 12:52 -27.78326 -48.41761 35112 ft 504 kts 42°
2026-04-30 12:52 -27.73597 -48.35911 35116 ft 504 kts 42°
2026-04-30 12:53 -27.68861 -48.30062 35118 ft 505 kts 42°
2026-04-30 12:53 -27.64116 -48.24211 35124 ft 506 kts 42°
2026-04-30 12:54 -27.59362 -48.18355 35126 ft 506 kts 42°
2026-04-30 12:54 -27.54599 -48.12493 35126 ft 507 kts 42°
2026-04-30 12:55 -27.49830 -48.06632 35127 ft 508 kts 41°
2026-04-30 12:55 -27.45054 -48.00769 35128 ft 508 kts 41°
2026-04-30 12:56 -27.40306 -47.94946 35129 ft 509 kts 41°
2026-04-30 12:56 -27.35509 -47.89095 35121 ft 509 kts 41°
2026-04-30 12:57 -27.30687 -47.83261 35123 ft 509 kts 41°
2026-04-30 12:57 -27.25858 -47.77425 35124 ft 510 kts 41°
2026-04-30 12:58 -27.21028 -47.71588 35121 ft 510 kts 41°
2026-04-30 12:58 -27.16190 -47.65746 35120 ft 511 kts 40°
2026-04-30 12:59 -27.11345 -47.59904 35118 ft 512 kts 40°
2026-04-30 12:59 -27.06489 -47.54057 35115 ft 512 kts 40°
2026-04-30 13:00 -27.01627 -47.48211 35113 ft 512 kts 40°
2026-04-30 13:00 -26.96761 -47.42367 35112 ft 513 kts 40°
2026-04-30 13:01 -26.91888 -47.36521 35117 ft 513 kts 40°
2026-04-30 13:01 -26.87012 -47.30686 35122 ft 513 kts 39°
2026-04-30 13:02 -26.82117 -47.24863 35114 ft 513 kts 39°
2026-04-30 13:02 -26.77221 -47.19047 35118 ft 513 kts 39°
2026-04-30 13:03 -26.72327 -47.13235 35116 ft 513 kts 39°
2026-04-30 13:03 -26.67482 -47.07445 35107 ft 513 kts 40°
2026-04-30 13:04 -26.62620 -47.01614 35115 ft 512 kts 39°
2026-04-30 13:04 -26.57751 -46.95815 35114 ft 511 kts 39°
2026-04-30 13:05 -26.52847 -46.90067 35111 ft 511 kts 39°
2026-04-30 13:06 -26.45496 -46.81461 35112 ft 510 kts 39°
2026-04-30 13:06 -26.40603 -46.75727 35107 ft 510 kts 39°
2026-04-30 13:07 -26.35708 -46.70003 35112 ft 510 kts 39°
2026-04-30 13:07 -26.30808 -46.64279 35113 ft 510 kts 39°
2026-04-30 13:08 -26.25904 -46.58556 35113 ft 510 kts 39°
2026-04-30 13:08 -26.20996 -46.52834 35109 ft 511 kts 39°
2026-04-30 13:09 -26.16086 -46.47118 35112 ft 511 kts 39°
2026-04-30 13:09 -26.11172 -46.41404 35108 ft 511 kts 39°
2026-04-30 13:10 -26.06253 -46.35692 35114 ft 511 kts 39°
2026-04-30 13:10 -26.01327 -46.29979 35104 ft 511 kts 39°
2026-04-30 13:11 -25.96404 -46.24276 35109 ft 511 kts 39°
2026-04-30 13:11 -25.91480 -46.18580 35110 ft 511 kts 39°
2026-04-30 13:12 -25.86557 -46.12892 35106 ft 510 kts 39°
2026-04-30 13:12 -25.81638 -46.07215 35108 ft 510 kts 39°
2026-04-30 13:13 -25.74298 -45.98760 35109 ft 509 kts 39°
2026-04-30 13:14 -25.66936 -45.90292 35109 ft 508 kts 39°
2026-04-30 13:14 -25.59581 -45.81858 35109 ft 507 kts 39°
2026-04-30 13:15 -25.52233 -45.73448 35111 ft 506 kts 39°
2026-04-30 13:16 -25.47339 -45.67853 35108 ft 506 kts 39°
2026-04-30 13:16 -25.42447 -45.62266 35110 ft 505 kts 39°
2026-04-30 13:17 -25.35110 -45.53901 35106 ft 505 kts 39°
2026-04-30 13:18 -25.27775 -45.45555 35107 ft 505 kts 39°
2026-04-30 13:18 -25.20434 -45.37216 35106 ft 505 kts 39°
2026-04-30 13:19 -25.15568 -45.31697 35105 ft 505 kts 39°
2026-04-30 13:19 -25.10669 -45.26149 35105 ft 505 kts 39°
2026-04-30 13:20 -25.05767 -45.20603 35106 ft 505 kts 39°
2026-04-30 13:20 -25.00859 -45.15056 35109 ft 505 kts 40°
2026-04-30 13:21 -24.95948 -45.09513 35108 ft 505 kts 40°
2026-04-30 13:22 -24.88569 -45.01198 35101 ft 506 kts 40°
2026-04-30 13:22 -24.81196 -44.92903 35103 ft 505 kts 40°
2026-04-30 13:23 -24.73827 -44.84629 35104 ft 504 kts 40°
2026-04-30 13:24 -24.64024 -44.73643 35102 ft 502 kts 40°
2026-04-30 13:25 -24.54262 -44.62728 35105 ft 499 kts 40°
2026-04-30 13:26 -24.46615 -44.55586 35077 ft 463 kts 21°
2026-04-30 13:26 -24.41022 -44.52497 35112 ft 453 kts 19°
2026-04-30 13:27 -24.35303 -44.49389 35118 ft 464 kts 20°
2026-04-30 13:28 -24.26525 -44.44514 35115 ft 478 kts 20°
2026-04-30 13:28 -24.20526 -44.41159 34227 ft 488 kts 21°
2026-04-30 13:28 -24.17508 -44.39469 33553 ft 488 kts 21°
2026-04-30 13:29 -24.11462 -44.36090 32165 ft 488 kts 21°
2026-04-30 13:29 -24.06393 -44.33265 31001 ft 488 kts 21°
2026-04-30 13:30 -23.97465 -44.28293 29382 ft 476 kts 21°
2026-04-30 13:31 -23.91785 -44.24683 28299 ft 475 kts 35°
2026-04-30 13:31 -23.86145 -44.15897 26962 ft 473 kts 63°
2026-04-30 13:32 -23.83403 -44.09444 26075 ft 462 kts 57°
2026-04-30 13:32 -23.79011 -44.04778 25252 ft 431 kts 22°
2026-04-30 13:33 -23.73459 -44.03074 24466 ft 406 kts 358°
2026-04-30 13:33 -23.67865 -44.02783 23693 ft 401 kts 356°
2026-04-30 13:34 -23.65074 -44.02653 23249 ft 403 kts 357°
2026-04-30 13:34 -23.56685 -44.02140 22077 ft 399 kts 358°
2026-04-30 13:35 -23.53927 -44.01960 21750 ft 395 kts 358°
2026-04-30 13:35 -23.48479 -44.01609 21111 ft 390 kts 358°
2026-04-30 13:36 -23.43076 -44.01268 20404 ft 388 kts 358°
2026-04-30 13:36 -23.40413 -44.01101 20053 ft 388 kts 358°
2026-04-30 13:36 -23.34985 -44.00760 19328 ft 388 kts 359°
2026-04-30 13:37 -23.32326 -44.00592 18959 ft 388 kts 359°
2026-04-30 13:37 -23.26949 -44.00254 18123 ft 387 kts 359°
2026-04-30 13:38 -23.21619 -43.99917 17361 ft 379 kts 359°
2026-04-30 13:38 -23.19010 -43.99751 17006 ft 373 kts 359°
2026-04-30 13:38 -23.13899 -43.99429 16316 ft 364 kts 360°
2026-04-30 13:39 -23.08883 -43.99115 15651 ft 358 kts
2026-04-30 13:39 -23.03939 -43.98806 14989 ft 354 kts
2026-04-30 13:40 -23.01453 -43.98650 14658 ft 353 kts
2026-04-30 13:40 -22.99008 -43.98497 14327 ft 351 kts
2026-04-30 13:40 -22.96603 -43.98341 14008 ft 350 kts
2026-04-30 13:40 -22.94249 -43.97661 13629 ft 354 kts 25°
2026-04-30 13:41 -22.92271 -43.96090 13309 ft 355 kts 45°
2026-04-30 13:41 -22.90879 -43.93892 12953 ft 355 kts 62°
2026-04-30 13:41 -22.89796 -43.91497 12628 ft 352 kts 64°
2026-04-30 13:41 -22.88765 -43.89106 12284 ft 345 kts 64°
2026-04-30 13:42 -22.87768 -43.86788 11946 ft 334 kts 64°
2026-04-30 13:42 -22.86792 -43.84549 11637 ft 323 kts 64°
2026-04-30 13:42 -22.84909 -43.80293 11065 ft 304 kts 64°
2026-04-30 13:43 -22.84002 -43.78257 10774 ft 295 kts 64°
2026-04-30 13:43 -22.83120 -43.76285 10511 ft 287 kts 64°
2026-04-30 13:43 -22.82249 -43.74339 10260 ft 286 kts 64°
2026-04-30 13:43 -22.81384 -43.72406 10004 ft 285 kts 64°
2026-04-30 13:44 -22.80681 -43.70407 9716 ft 284 kts 75°
2026-04-30 13:44 -22.80221 -43.68338 9446 ft 282 kts 77°
2026-04-30 13:44 -22.79782 -43.66274 9178 ft 280 kts 77°
2026-04-30 13:44 -22.79329 -43.64230 8915 ft 278 kts 76°
2026-04-30 13:45 -22.78376 -43.60189 8404 ft 275 kts 75°
2026-04-30 13:45 -22.77857 -43.58208 8146 ft 273 kts 68°
2026-04-30 13:45 -22.76818 -43.56535 7875 ft 265 kts 41°
2026-04-30 13:46 -22.75269 -43.55544 7643 ft 256 kts 19°
2026-04-30 13:46 -22.73602 -43.54973 7414 ft 248 kts 17°
2026-04-30 13:46 -22.71988 -43.54398 7189 ft 241 kts 20°
2026-04-30 13:46 -22.70449 -43.53736 6969 ft 235 kts 22°
2026-04-30 13:47 -22.68981 -43.53022 6744 ft 228 kts 25°
2026-04-30 13:47 -22.67596 -43.52236 6550 ft 221 kts 30°
2026-04-30 13:47 -22.66473 -43.51182 6354 ft 212 kts 59°
2026-04-30 13:47 -22.66124 -43.49683 6106 ft 207 kts 96°
2026-04-30 13:48 -22.66648 -43.48234 5719 ft 211 kts 123°
2026-04-30 13:48 -22.67541 -43.46964 5287 ft 211 kts 128°
2026-04-30 13:48 -22.68447 -43.45723 4896 ft 210 kts 126°
2026-04-30 13:48 -22.69313 -43.44465 4464 ft 206 kts 125°
2026-04-30 13:49 -22.70141 -43.43223 4061 ft 201 kts 125°
2026-04-30 13:49 -22.70951 -43.41998 3660 ft 200 kts 125°
2026-04-30 13:49 -22.71737 -43.40805 3269 ft 194 kts 125°
2026-04-30 13:49 -22.72518 -43.39616 2919 ft 190 kts 125°
2026-04-30 13:50 -22.73277 -43.38479 2577 ft 186 kts 127°
2026-04-30 13:50 -22.74714 -43.36327 2137 ft 167 kts 125°
2026-04-30 13:50 -22.75377 -43.35317 1940 ft 165 kts 126°
2026-04-30 13:51 -22.76030 -43.34325 1725 ft 160 kts 125°
2026-04-30 13:51 -22.76669 -43.33351 1527 ft 159 kts 125°
2026-04-30 13:51 -22.77310 -43.32376 1308 ft 159 kts 125°
2026-04-30 13:51 -22.77948 -43.31404 1107 ft 158 kts 125°
2026-04-30 13:52 -22.78584 -43.30434 909 ft 158 kts 125°
2026-04-30 13:52 -22.79221 -43.29471 734 ft 157 kts 126°
2026-04-30 13:52 -22.79864 -43.28501 532 ft 159 kts 124°
2026-04-30 13:52 -22.80492 -43.27520 303 ft 158 kts 124°
2026-04-30 13:53 -22.81117 -43.26556 127 ft 155 kts 124°
2026-04-30 13:53 -22.81736 -43.25622 23 ft 144 kts 126°
2026-04-30 13:53 -22.82178 -43.24959 22 ft 76 kts 126°
2026-04-30 13:53 -22.82344 -43.24663 19 ft 32 kts 107°
2026-04-30 13:54 -22.82364 -43.24465 18 ft 24 kts 76°
2026-04-30 13:54 -22.82245 -43.24352 21 ft 23 kts 36°
2026-04-30 13:54 -22.82112 -43.24321 20 ft 22 kts 311°
2026-04-30 13:54 -22.82025 -43.24454 20 ft 21 kts 305°
2026-04-30 13:55 -22.81940 -43.24583 21 ft 21 kts 311°
2026-04-30 13:55 -22.81815 -43.24554 21 ft 20 kts 37°
2026-04-30 13:55 -22.81737 -43.24476 17 ft 12 kts 79°
2026-04-30 13:55 -22.81772 -43.24411 18 ft 8 kts 126°
2026-04-30 13:56 -22.81776 -43.24405 17 ft 0 kts 126°